This is the latest recevied weather packets stored in our database for station/object KO4LFZ. If no packets are shown the sender has not sent any weather packets the latest 10 day(s).
| Time | Temp. | Humidity | Pressure | Rain* | Wind** | Luminosity | Snow |
|---|---|---|---|---|---|---|---|
| 1778023892 | 17.22° C | 99% | 1006 hPa | 1.27 mm | - | 35 W/m² | - |
| 1778023589 | 17.22° C | 99% | 1006.3 hPa | 1.27 mm | - | 28 W/m² | - |
| 1778023287 | 17.22° C | 99% | 1006.5 hPa | 0 mm | - | 28 W/m² | - |
| 1778022983 | 17.22° C | 99% | 1006.4 hPa | 0 mm | - | 35 W/m² | - |
| 1778022682 | 17.22° C | 99% | 1006.6 hPa | 0 mm | - | 30 W/m² | - |
| 1778022380 | 17.22° C | 99% | 1006.5 hPa | 0 mm | - | 22 W/m² | - |
| 1778022075 | 17.22° C | 99% | 1006.6 hPa | 0 mm | - | 24 W/m² | - |
| 1778021766 | 17.22° C | 99% | 1006.5 hPa | 0 mm | - | 26 W/m² | - |
| 1778021462 | 17.22° C | 99% | 1006.7 hPa | 0 mm | - | 27 W/m² | - |
| 1778021159 | 17.22° C | 99% | 1006.8 hPa | 0 mm | - | 26 W/m² | - |
| 1778020857 | 17.22° C | 99% | 1006.7 hPa | 0 mm | - | 25 W/m² | - |
| 1778020554 | 17.22° C | 99% | 1006.6 hPa | 0 mm | - | 32 W/m² | - |
| 1778020250 | 17.22° C | 99% | 1006.8 hPa | 1.78 mm | - | 33 W/m² | - |
| 1778019946 | 17.22° C | 99% | 1006.8 hPa | 1.78 mm | - | 40 W/m² | - |
| 1778019642 | 17.22° C | 99% | 1006.6 hPa | 0 mm | - | 51 W/m² | - |
| 1778019340 | 17.22° C | 99% | 1006.7 hPa | 0 mm | - | 49 W/m² | - |
| 1778019036 | 17.22° C | 99% | 1006.8 hPa | 0 mm | - | 46 W/m² | - |
| 1778018734 | 17.22° C | 99% | 1006.7 hPa | 1.27 mm | - | 41 W/m² | - |
| 1778018431 | 17.22° C | 99% | 1006.9 hPa | 1.27 mm | - | 37 W/m² | - |
| 1778018129 | 17.22° C | 99% | 1007 hPa | 1.78 mm | - | 52 W/m² | - |
| 1778017826 | 17.22° C | 99% | 1006.8 hPa | 0 mm | - | 57 W/m² | - |
| 1778017525 | 17.22° C | 99% | 1006.9 hPa | 1.27 mm | - | 75 W/m² | - |
| 1778017221 | 17.22° C | 99% | 1007.1 hPa | 1.27 mm | - | 55 W/m² | - |
| 1778016919 | 17.22° C | 99% | 1006.9 hPa | 0 mm | - | 42 W/m² | - |
| 1778016615 | 17.22° C | 99% | 1007 hPa | 1.78 mm | - | 40 W/m² | - |
* Rain latest hour (hover to see other rain measurements)
** Current wind speed in m/s (hover to see current wind gust speed)